Simultaneous Nadir Overpasses (SNOs) Predictions

Prediction of SNOs over PacNW region [( 10.00, 139.50) to ( 22.70, 165.60)] between NOAA-19 and NPP Satellites:

Table of predicted SNOs over PacNW region for the next 30.0 days since TLE Epoch: 7/20/2013
Index Date (NOAA-19) Time (NOAA-19) NOAA-19 Lat,Lon Date (NPP) Time (NPP) NPP Lat,Lon Distance(km) Time Diff (sec)
1 07/21/2013 15:15:16 22.60, 159.78 07/21/2013 15:16:55 23.48, 155.80 419.91 99
2 07/22/2013 02:31:43 22.70, 163.22 07/22/2013 02:29:40 22.08, 160.23 314.62 123
3 07/22/2013 04:11:42 15.37, 139.50 07/22/2013 04:10:11 18.62, 135.71 541.84 91
4 08/03/2013 03:42:26 16.41, 146.72 08/03/2013 03:44:13 15.50, 142.75 436.31 107
5 08/03/2013 16:19:18 14.07, 142.38 08/03/2013 16:16:50 14.71, 139.34 335.02 148
6 08/15/2013 15:47:17 22.62, 151.94 08/15/2013 15:49:14 23.55, 147.79 437.03 117
7 08/16/2013<
